Theta_e
327 334 343 345 345 347 346 343 342 340 338 337 337 336 336 336 336 335 335 335 335 335 336 336 337 336 337 337 336 336 337 337 338 339 340 340 339 341 340 338 339 334 338
330 335 344 345 344 348 347 345 342 341 339 338 337 336 335 336 337 337 338 338 336 335 336 337 336 337 336 337 336 337 337 337 337 337 336 338 339 340 339 338 338 336 337
330 340 342 343 345 346 346 343 342 341 338 338 337 337 337 337 334 335 337 338 336 335 336 336 337 337 337 337 337 337 337 336 335 335 335 337 337 338 338 337 336 336 334
338 341 342 344 346 346 345 342 341 341 340 337 337 336 338 336 335 335 335 338 337 336 336 335 337 336 337 337 337 336 336 335 334 333 336 336 336 338 338 336 334 333 331
340 342 343 343 345 345 343 342 341 340 340 340 337 336 337 334 334 333 334 337 336 334 335 335 336 337 337 336 336 335 334 333 331 333 335 335 335 335 335 333 330 330 328
339 341 342 344 344 344 342 342 341 341 341 341 338 334 336 333 332 333 333 334 335 333 334 336 336 336 335 335 334 333 333 332 331 333 334 334 333 335 334 331 330 328 327
337 340 342 342 342 342 342 341 341 342 343 342 340 334 335 336 335 335 335 336 335 335 335 336 336 335 334 333 333 332 330 329 330 331 333 333 333 334 334 331 329 327 326
336 338 339 335 338 340 341 342 341 342 342 342 339 336 334 336 334 335 335 335 335 335 335 335 335 333 332 331 330 329 327 326 328 330 331 332 334 334 333 331 330 328 325
336 336 336 337 336 334 337 338 340 341 340 339 338 336 335 336 336 335 335 334 335 335 334 335 332 330 330 329 327 324 323 322 327 329 329 330 332 333 332 330 328 326 323
334 335 334 335 335 336 337 331 333 335 335 335 335 333 332 332 333 333 331 334 335 335 334 331 330 330 328 326 323 320 318 320 323 326 329 330 331 332 331 329 327 324 322
331 332 333 332 332 333 334 329 329 330 331 331 330 327 327 332 332 330 328 331 334 333 331 329 327 325 322 321 319 317 317 317 319 322 327 329 330 331 330 328 325 322 320
328 329 331 332 330 331 332 331 333 332 333 333 332 331 329 329 329 327 322 324 330 328 328 327 325 320 317 316 316 314 314 315 316 317 322 327 329 329 327 324 322 321 320
326 328 330 331 330 330 330 331 331 331 331 329 328 327 327 326 326 326 326 329 329 323 323 322 319 318 316 315 313 312 312 313 314 315 318 324 324 324 323 323 321 318 319
324 326 329 330 329 330 330 330 330 329 328 326 325 326 326 325 325 325 325 326 326 322 320 319 317 314 312 312 311 309 309 310 311 312 315 317 321 320 321 319 319 320 318
323 324 326 329 329 328 328 328 329 327 326 325 324 326 326 325 324 325 322 323 323 321 318 317 314 310 309 308 308 307 306 306 307 308 311 313 317 317 318 318 318 318 317
323 323 325 327 329 328 328 327 328 326 325 324 325 325 326 326 325 325 322 321 321 320 318 317 313 311 308 306 303 302 302 302 302 303 305 308 313 314 316 316 316 315 315
323 323 324 325 328 326 327 326 327 326 324 324 324 326 326 325 325 325 320 320 319 319 317 315 313 310 307 304 300 299 299 299 299 299 300 302 304 310 312 313 314 314 314
323 324 324 325 327 326 326 326 326 325 324 324 325 325 325 325 326 324 320 319 318 317 316 314 311 309 305 300 298 298 297 297 296 296 296 296 298 301 306 310 311 311 312
325 325 324 325 324 325 326 326 325 324 323 323 324 325 325 325 325 323 320 318 318 316 315 313 309 306 301 298 297 296 296 296 295 294 293 293 294 295 297 300 303 307 308
326 325 326 326 325 325 325 324 323 322 322 322 323 324 324 325 324 321 319 318 317 315 313 312 307 304 300 298 296 294 294 294 294 293 292 292 292 292 292 292 294 298 304
326 325 325 324 325 325 324 322 321 320 321 320 322 323 324 324 323 320 318 317 317 315 313 311 305 301 298 298 296 295 294 293 293 292 292 291 290 290 291 291 292 292 294
324 324 324 324 324 324 324 323 323 322 320 321 320 322 323 323 321 319 317 317 316 315 312 308 305 300 299 298 299 297 294 294 294 292 292 291 290 290 290 290 290 290 291
322 323 323 324 324 325 325 324 317 317 315 316 317 319 320 322 320 319 316 317 316 315 312 309 306 303 299 298 300 300 293 295 293 292 291 291 289 289 289 289 289 289 288
323 323 323 324 324 325 325 323 320 320 319 319 320 320 319 320 319 317 315 314 316 315 312 310 307 305 301 299 298 300 301 299 295 292 292 291 290 289 288 288 288 288 287
323 323 323 323 323 324 324 323 321 321 322 318 317 318 318 317 318 316 314 312 313 314 313 311 308 306 303 302 300 299 299 297 296 294 291 290 289 290 289 288 288 288 286
320 322 322 321 321 323 323 323 321 321 321 314 315 316 317 316 315 314 313 312 311 312 313 311 310 307 305 303 302 301 300 300 297 295 292 290 291 289 289 288 287 287 287
Wind_Speed
7 11 15 14 15 16 19 20 17 16 17 16 16 16 15 15 15 15 15 14 15 15 15 15 15 15 14 15 16 15 15 15 15 15 14 15 15 18 20 20 20 19 23
13 12 12 16 16 18 19 19 18 16 16 17 16 16 15 15 14 13 13 15 15 15 14 14 14 13 13 15 15 15 16 16 15 14 13 12 16 19 23 22 21 21 25
14 12 14 16 16 19 19 19 17 16 17 17 16 16 15 14 13 13 13 13 16 14 14 13 14 13 15 15 16 17 17 17 15 13 11 9 13 21 24 25 26 26 25
14 12 12 12 17 19 18 19 17 16 16 17 16 15 14 14 12 12 12 11 17 14 13 14 13 14 15 17 18 18 18 16 15 13 9 10 14 23 26 26 26 25 25
14 12 13 16 19 19 18 18 17 16 16 17 17 15 14 13 12 12 10 16 16 13 12 13 13 15 18 18 19 18 18 17 16 12 11 12 12 19 23 24 22 23 22
13 14 15 19 21 19 18 17 16 16 15 17 16 14 14 12 12 11 10 12 13 13 13 14 15 18 19 18 19 18 17 17 14 12 11 12 12 21 22 23 23 22 22
14 14 15 16 18 18 17 16 15 15 15 17 16 13 13 13 13 11 13 13 14 13 13 14 17 19 19 19 18 17 16 16 12 12 11 11 14 21 22 22 22 22 21
15 12 13 13 13 15 16 15 15 14 14 15 18 13 12 12 13 11 13 12 12 12 14 16 19 19 19 18 18 18 18 14 12 12 11 10 16 21 22 21 23 23 22
13 12 11 11 12 11 11 12 11 11 15 15 15 12 11 11 11 11 9 10 12 14 15 19 18 18 17 18 18 17 18 16 13 10 10 8 15 20 21 21 22 21 21
10 11 11 11 11 10 9 10 11 10 11 15 11 12 11 11 10 9 7 5 14 18 19 18 17 18 18 18 18 17 16 15 12 11 9 9 18 20 21 22 21 20 20
11 12 11 11 10 10 9 8 10 11 12 12 10 10 9 7 7 7 6 7 15 18 18 18 18 18 18 17 17 15 13 7 10 8 7 13 18 20 20 20 19 19 18
15 13 13 11 10 10 8 9 9 8 8 8 8 9 6 7 6 7 7 9 18 17 17 18 17 16 10 6 6 11 7 8 8 8 7 15 18 18 19 19 18 18 18
15 11 13 12 10 10 8 7 5 5 5 5 8 7 7 5 5 4 4 6 9 13 7 9 9 7 9 7 7 7 8 8 6 7 14 16 15 16 17 17 16 15 17
16 16 14 14 12 10 7 7 7 6 6 5 6 9 6 4 5 5 4 5 7 6 9 7 6 9 10 10 10 10 10 8 6 6 12 16 15 15 15 15 15 18 15
16 17 16 13 13 11 11 8 8 7 6 7 7 8 6 6 6 5 5 5 6 7 8 8 8 8 9 10 9 10 10 10 10 6 6 17 15 15 15 14 15 14 13
18 17 17 15 13 13 10 11 8 7 7 7 7 7 8 6 6 6 5 6 7 7 7 8 8 8 8 8 10 9 9 8 9 9 6 8 16 15 14 14 13 12 12
18 18 18 16 13 14 13 11 8 7 7 7 7 9 9 8 8 8 6 6 7 7 10 9 9 8 7 7 10 8 8 8 8 8 7 7 7 14 14 13 12 12 11
15 15 15 14 14 15 13 10 8 7 7 6 7 7 9 9 9 8 7 7 8 8 9 8 8 7 7 7 7 6 6 6 8 8 7 5 5 5 10 14 13 12 11
17 17 18 18 18 17 12 9 9 9 7 6 7 7 9 9 9 8 7 8 10 8 8 8 7 7 7 7 7 5 5 5 6 5 7 6 6 5 4 11 12 12 10
17 18 16 14 16 15 10 8 6 6 6 6 7 7 10 8 10 9 8 10 10 9 8 7 9 6 7 8 7 6 4 4 4 4 5 4 4 5 5 6 4 6 11
15 15 16 16 15 12 10 10 8 9 7 6 6 9 9 9 10 10 8 10 9 10 10 10 8 10 6 7 7 4 3 3 4 3 3 4 4 4 5 3 3 3 4
18 18 18 18 17 14 10 10 6 8 5 6 6 8 9 9 10 10 11 10 11 9 11 12 10 7 3 9 3 3 4 3 2 2 2 3 3 2 3 3 4 4 4
19 21 20 19 18 16 14 9 4 4 3 5 5 8 8 11 11 11 11 10 11 10 10 12 11 10 6 8 5 2 3 3 3 2 4 3 4 3 2 2 3 4 4
22 18 19 19 18 16 16 14 16 12 10 8 9 7 8 11 11 11 11 11 11 9 11 12 10 9 6 10 4 4 1 2 4 4 3 4 5 5 5 3 3 4 4
17 18 17 18 18 18 18 17 14 14 10 5 5 10 9 9 11 11 11 11 11 9 10 13 13 11 8 7 5 4 2 1 1 2 3 4 4 5 5 5 4 4 4
15 16 17 20 20 19 19 20 19 19 14 8 9 9 9 7 8 10 11 11 10 11 12 12 13 14 12 7 8 6 5 5 4 4 2 2 4 5 6 5 5 5 5
Wind_Direction
166 165 162 161 146 146 135 127 124 123 120 120 114 109 106 104 99 95 92 93 89 87 86 86 82 76 73 74 67 59 54 51 49 51 52 62 70 74 77 76 71 65 65
146 164 168 158 156 150 134 130 126 127 125 120 118 114 111 107 103 109 108 96 86 89 84 87 79 75 76 81 70 61 55 52 49 47 50 54 67 82 81 74 71 68 63
144 154 158 156 162 144 134 129 132 134 131 121 117 115 116 107 103 96 88 97 97 84 91 87 78 69 88 82 73 65 58 54 54 53 56 61 81 84 77 70 63 61 59
141 154 167 157 148 137 133 133 135 137 133 129 120 119 110 106 103 95 92 90 93 93 86 87 72 81 83 79 71 65 58 54 51 51 66 73 87 83 78 74 68 63 59
133 142 144 139 139 135 137 139 141 143 140 138 127 118 115 110 105 102 91 92 92 91 89 88 80 85 82 75 71 65 60 54 50 60 74 87 86 85 83 80 75 69 62
123 128 134 140 136 139 141 143 143 147 145 138 124 125 120 117 113 111 104 95 93 91 93 86 90 89 82 76 70 64 60 55 57 63 77 75 88 89 85 87 82 73 60
132 133 135 137 139 143 144 147 150 156 151 140 124 127 124 119 116 109 106 101 98 97 93 88 92 87 83 78 75 71 64 58 62 64 72 84 91 88 88 82 79 73 66
138 136 140 137 140 145 153 155 158 162 157 139 116 133 131 128 119 111 106 109 106 105 99 95 95 91 87 80 73 65 62 56 61 62 69 78 86 91 88 83 76 67 64
143 141 141 145 146 143 143 141 145 153 143 120 121 136 127 114 118 115 115 122 113 103 100 97 95 94 87 85 76 65 59 53 64 60 65 78 89 90 85 78 73 71 65
149 149 150 149 149 147 147 139 133 127 123 115 131 119 115 112 110 108 102 101 120 108 103 105 101 96 90 80 73 66 58 56 58 57 64 77 82 82 79 78 74 68 61
160 161 158 155 153 148 146 141 130 130 121 123 123 121 117 128 125 116 87 83 111 109 109 107 106 98 86 79 71 70 66 57 59 49 60 70 80 79 76 72 66 63 60
168 167 170 163 157 150 149 149 143 139 137 142 142 138 133 134 128 109 81 66 109 109 111 110 105 94 82 76 79 63 68 65 63 52 40 65 72 74 70 63 66 63 58
170 172 172 168 160 158 157 153 151 148 143 147 149 143 143 137 129 117 106 106 113 115 110 106 102 94 98 91 81 74 71 61 57 52 34 43 63 71 73 77 68 59 61
177 180 175 169 170 165 157 161 160 158 156 155 164 154 153 144 143 135 122 132 128 124 119 118 109 108 99 93 88 86 71 64 58 55 42 40 57 68 69 69 66 62 71
180 186 185 169 175 169 165 169 166 168 168 164 167 169 160 155 155 143 131 141 137 135 129 126 122 117 105 101 89 86 80 72 67 61 52 39 51 66 71 71 73 82 71
184 186 187 182 175 175 174 178 174 169 171 167 173 177 173 168 163 156 143 140 142 138 135 132 129 119 109 104 91 83 82 79 74 68 65 51 49 60 66 69 71 71 66
191 188 190 188 178 181 180 185 178 176 170 176 183 184 184 175 174 166 151 149 144 140 132 128 126 118 115 102 98 92 90 87 82 74 68 63 52 50 63 65 62 62 55
183 187 186 189 185 184 185 185 179 178 177 184 186 188 189 184 175 164 155 153 147 146 145 144 140 124 116 110 110 98 96 91 87 81 75 71 65 59 56 58 54 54 51
182 184 191 193 191 189 180 176 179 180 184 190 192 191 192 187 172 164 160 151 153 152 154 150 143 135 128 117 113 106 98 94 93 92 88 82 74 71 71 58 47 51 52
193 195 185 193 190 187 174 170 177 186 192 190 196 197 191 186 174 164 158 155 157 156 156 150 142 126 135 134 120 101 91 92 97 97 100 93 79 74 71 68 54 40 50
189 188 189 189 187 181 179 181 193 199 196 197 199 197 195 185 175 169 162 161 165 165 164 153 131 131 125 137 123 108 92 96 114 125 133 114 100 88 83 83 75 64 51
188 189 192 191 187 189 185 188 192 182 198 202 191 197 196 183 177 171 166 170 173 158 159 159 151 144 120 182 140 132 166 175 184 177 153 133 139 110 107 101 90 79 69
193 195 192 192 188 189 186 176 122 117 117 171 192 201 197 187 180 176 174 171 173 169 170 171 167 166 153 197 222 154 146 198 149 167 209 192 194 179 181 168 129 109 97
203 197 195 193 188 192 180 184 189 198 196 203 199 195 191 188 185 183 177 174 176 175 174 179 176 178 148 179 205 221 278 139 164 165 214 215 213 204 207 196 172 161 133
193 196 196 193 193 194 188 191 193 202 204 164 164 180 188 192 191 184 179 177 179 182 182 179 180 183 188 174 172 154 173 140 103 137 154 189 232 214 213 207 192 191 170
200 190 194 195 198 195 193 196 197 202 196 172 179 185 193 195 192 191 185 185 185 186 185 184 187 191 192 185 190 179 171 173 177 163 157 181 206 191 203 207 206 207 184